カタリナ彗星

C/2014 J1 ( Catalina )

English version
Home page
Updated on September 21, 2014

---------------------------------------------------------------------

・ プロフィール

発見日 2014年5月9日
発見光度 18.2等
発見者 R. J. Sanders (Catalina Sky Survey)

・ 写真集

・ 軌道要素

Epoch 2014 July 2.0 TT = JDT 2456840.5
T 2014 June 20.00610 TT                                 MPC
q   1.7085849            (2000.0)            P               Q
n   0.03869320     Peri.  195.47508     -0.88411461     -0.40565653
a   8.6572436      Node    41.94168     -0.38338595     +0.91348047
e   0.8026410      Incl.  159.69713     -0.26712650     +0.03156290
P  25.5
From 100 observations 2014 May 9-June 22, mean residual 0".6.

・ 光度変化

        m1 = 16.0 + 5 logΔ + 10.0 log r

---------------------------------------------------------------------

軌道要素はM.P.E.C. 2014-N57に掲載されたものです。
光度グラフはComet for Windowsで作成したものです。

---------------------------------------------------------------------

Copyright(C) Seiichi Yoshida (comet@aerith.net). All rights reserved.